Location: Tel Aviv
(32.0670°N, 34.7670°E)
Time: 02:58:52
(UTC+02:00)

Transit 4A - Pass Details

Date: 09 December 2023
Orbit: 869 x 974 km, 66.8° (Epoch: 23 February)

Event Time Altitude Azimuth Distance (km) Brightness Sun altitude
Rises 17:04:26 0° 170° (S) 3,646 11.2 -6.2°
Reaches altitude 10° 17:07:27 10° 157° (SSE) 2,707 10.3 -6.8°
Maximum altitude 17:12:24 24° 106° (ESE) 1,874 9.1 -7.8°
Drops below altitude 10° 17:17:21 10° 54° (NE) 2,711 9.7 -8.7°
Enters shadow 17:17:34 - 53° (NE) 2,772 9.8 -8.8°
